Yatton Keynell, United Kingdom

10:59 AM GMT on March 25, 2019 (GMT +0000)
Yatton Keynell

Weather History for 03740 - June, 2004

Change the Weather History Date:

Wednesday, June 16, 2004

  Actual Average Record
Temperature  
Mean Temperature 68 °F -  
Max Temperature 77 °F 67 °F - ()
Min Temperature 59 °F 51 °F - ()
Cooling Degree Days 3    
Growing Degree Days 18 (Base 50)    
Moisture  
Dew Point 54 °F    
Average Humidity 68    
Maximum Humidity 88    
Minimum Humidity 38    
Precipitation  
Precipitation 0.00 in 0.07 in - ()
Sea Level Pressure  
Sea Level Pressure 30.14 in    
Wind  
Wind Speed 7 mph ()    
Max Wind Speed 18 mph    
Max Gust Speed -    
Visibility 6.2 miles    
Events      
T = Trace of Precipitation, MM = Missing Value Source: Averaged Metar Reports

Daily Weather History Graph

Daily Weather History Graph

Search for Another Location

Airport or City:

Astronomy

Jun. 16, 2004 Rise Set
Actual Time 4:50 AM BST 9:27 PM BST
Civil Twilight 4:02 AM BST 10:15 PM BST
Nautical Twilight 2:48 AM BST 11:29 PM BST
Astronomical Twilight 1:41 AM BST 12:36 AM BST
Moon 3:32 AM BST (6/16) 8:44 PM BST (6/16)
Length of Visible Light 18h 12m
Length of Day
16h 37m
Waning Crescent, 2% of the Moon is Illuminated
Jun 16
Waning Crescent
Jun 17
New
Jun 25
First Quarter
Jul 2
Full
Jul 9
Last Quarter

Hourly Weather History & Observations

Time (BST) Temp. Dew Point Humidity Pressure Visibility Wind Dir Wind Speed Gust Speed Precip Events Conditions
12:50 AM 62.6 °F 55.4 °F 77% 30.24 in 6.2 mi NNW 5.8 mph - N/A   Mostly Cloudy
1:50 AM 60.8 °F 55.4 °F 82% 30.21 in 6.2 mi NNW 4.6 mph - N/A   Mostly Cloudy
2:50 AM 60.8 °F 55.4 °F 82% 30.21 in 6.2 mi NW 6.9 mph - N/A   Mostly Cloudy
3:50 AM 60.8 °F 55.4 °F 82% 30.21 in 6.2 mi NW 4.6 mph - N/A   Mostly Cloudy
4:50 AM 60.8 °F 55.4 °F 82% 30.21 in 6.2 mi North 5.8 mph - N/A   Mostly Cloudy
5:50 AM 59.0 °F 55.4 °F 88% 30.21 in 6.2 mi North 5.8 mph - N/A   Mostly Cloudy
6:50 AM 59.0 °F 55.4 °F 88% 30.21 in 6.2 mi NE 3.5 mph - N/A   Mostly Cloudy
7:50 AM 60.8 °F 55.4 °F 82% 30.21 in 6.2 mi NE 3.5 mph - N/A   Overcast
8:50 AM 62.6 °F 55.4 °F 77% 30.21 in 6.2 mi ESE 4.6 mph - N/A   Mostly Cloudy
9:50 AM 66.2 °F 57.2 °F 73% 30.21 in 6.2 mi SSW 4.6 mph - N/A   Mostly Cloudy
10:50 AM 68.0 °F 57.2 °F 68% 30.18 in 6.2 mi SSW 6.9 mph - N/A   Scattered Clouds
11:50 AM 69.8 °F 55.4 °F 60% 30.18 in 6.2 mi WSW 10.4 mph - N/A   Scattered Clouds
12:50 PM 73.4 °F 57.2 °F 57% 30.15 in 6.2 mi WSW 12.7 mph - N/A   Scattered Clouds
1:50 PM 73.4 °F 55.4 °F 53% 30.15 in 6.2 mi WSW 17.3 mph - N/A   Scattered Clouds
2:50 PM 73.4 °F 57.2 °F 57% 30.12 in 6.2 mi WSW 16.1 mph - N/A   Scattered Clouds
3:50 PM 75.2 °F 55.4 °F 50% 30.09 in 6.2 mi West 16.1 mph - N/A   Scattered Clouds
4:50 PM 77.0 °F 55.4 °F 47% 30.09 in 6.2 mi West 18.4 mph - N/A   Scattered Clouds
5:50 PM 73.4 °F 53.6 °F 50% 30.06 in 6.2 mi WSW 18.4 mph - N/A   Scattered Clouds
6:50 PM 73.4 °F 46.4 °F 38% 30.06 in 6.2 mi West 16.1 mph - N/A   Mostly Cloudy
7:50 PM 68.0 °F 46.4 °F 46% 30.04 in 6.2 mi WSW 13.8 mph - N/A   Mostly Cloudy
8:50 PM 64.4 °F 48.2 °F 56% 30.04 in - SW 11.5 mph - N/A   Clear
9:50 PM 62.6 °F 50.0 °F 63% 30.04 in - WSW 9.2 mph - N/A   Clear
10:50 PM 59.0 °F 51.8 °F 77% 30.04 in - SW 6.9 mph - N/A   Clear
11:50 PM 59.0 °F 55.4 °F 88% 30.01 in 6.2 mi SW 12.7 mph - N/A   Scattered Clouds